When you browse on this site, cookies collect data to enhance your experience and personalize the content and advertising you see.
Visit our Privacy Policy to learn more. By continuing to use the site, you agree to this use of cookies and data.
  • en Suisse
  • Liste des pays
  • À 7 jours
  • Température de l'eau
  • Carte météo
  • Widgets météo
  • user-avatar
    Se connecter

    Météo par heure à Chernomorets

    Ce jour, 29 Février, Samedi

    Heure Température Précipitation Vent Pression Humidité
    00:00 +5°C° 0.4 mm 5 m/s 756 mmHg 87%
    01:00 +4°C° 0.4 mm 6 m/s 756 mmHg 87%
    02:00 +4°C° 0.4 mm 8 m/s 756 mmHg 87%
    03:00 +2°C° 0.8 mm 8 m/s 756 mmHg 88%
    04:00 +2°C° 0.8 mm 8 m/s 756 mmHg 89%
    05:00 +2°C° 0.8 mm 9 m/s 757 mmHg 90%
    06:00 +2°C° 0.2 mm 9 m/s 757 mmHg 90%
    07:00 +2°C° 0.2 mm 8 m/s 758 mmHg 90%
    08:00 +2°C° 0.2 mm 8 m/s 759 mmHg 89%
    09:00 +4°C° 0.1 mm 8 m/s 760 mmHg 86%
    10:00 +4°C° 0.1 mm 8 m/s 760 mmHg 82%
    11:00 +5°C° 0.1 mm 7 m/s 761 mmHg 78%
    12:00 +5°C° 0 mm 7 m/s 761 mmHg 75%
    13:00 +7°C° 0 mm 6 m/s 762 mmHg 72%
    14:00 +7°C° 0 mm 5 m/s 762 mmHg 69%
    15:00 +7°C° 0 mm 5 m/s 763 mmHg 69%
    16:00 +7°C° 0 mm 4 m/s 763 mmHg 69%
    17:00 +8°C° 0 mm 3 m/s 763 mmHg 69%
    18:00 +7°C° 0 mm 2 m/s 764 mmHg 74%
    19:00 +6°C° 0 mm 2 m/s 764 mmHg 78%
    20:00 +6°C° 0 mm 1 m/s 765 mmHg 82%
    21:00 +6°C° 0 mm 1 m/s 765 mmHg 83%
    22:00 +5°C° 0 mm 1 m/s 765 mmHg 85%
    23:00 +5°C° 0 mm 1 m/s 765 mmHg 86%

    Demain, 1 Mars, Dimanche

    Heure Température Précipitation Vent Pression Humidité
    00:00 +5°C° 0 mm 1 m/s 765 mmHg 86%
    01:00 +5°C° 0 mm 1 m/s 765 mmHg 87%
    02:00 +4°C° 0 mm 1 m/s 765 mmHg 87%
    03:00 +4°C° 0 mm 1 m/s 765 mmHg 87%
    04:00 +3°C° 0 mm 2 m/s 765 mmHg 87%
    05:00 +3°C° 0 mm 2 m/s 764 mmHg 87%
    06:00 +3°C° 0 mm 2 m/s 764 mmHg 85%
    07:00 +4°C° 0 mm 2 m/s 764 mmHg 83%
    08:00 +4°C° 0 mm 2 m/s 764 mmHg 80%
    09:00 +6°C° 0 mm 2 m/s 764 mmHg 72%
    10:00 +8°C° 0 mm 3 m/s 764 mmHg 65%
    11:00 +9°C° 0 mm 3 m/s 764 mmHg 57%
    12:00 +10°C° 0 mm 3 m/s 764 mmHg 55%
    13:00 +11°C° 0 mm 4 m/s 763 mmHg 54%
    14:00 +12°C° 0 mm 5 m/s 763 mmHg 52%
    15:00 +10°C° 0 mm 5 m/s 763 mmHg 57%
    16:00 +9°C° 0 mm 5 m/s 762 mmHg 61%
    17:00 +9°C° 0 mm 5 m/s 762 mmHg 66%
    18:00 +8°C° 0 mm 5 m/s 762 mmHg 71%
    19:00 +7°C° 0 mm 4 m/s 762 mmHg 76%
    20:00 +6°C° 0 mm 4 m/s 762 mmHg 81%
    21:00 +5°C° 0 mm 4 m/s 762 mmHg 81%
    22:00 +5°C° 0 mm 4 m/s 762 mmHg 81%
    23:00 +5°C° 0 mm 4 m/s 762 mmHg 82%

    Après-demain, 2 Mars, Lundi

    Heure Température Précipitation Vent Pression Humidité
    00:00 +4°C° 0 mm 3 m/s 761 mmHg 81%
    01:00 +4°C° 0 mm 3 m/s 761 mmHg 81%
    02:00 +4°C° 0 mm 3 m/s 761 mmHg 80%
    03:00 +4°C° 0 mm 3 m/s 760 mmHg 81%
    04:00 +4°C° 0 mm 3 m/s 760 mmHg 83%
    05:00 +5°C° 0 mm 2 m/s 760 mmHg 84%
    06:00 +4°C° 0 mm 3 m/s 759 mmHg 82%
    07:00 +5°C° 0 mm 3 m/s 759 mmHg 81%
    08:00 +5°C° 0 mm 3 m/s 759 mmHg 80%
    09:00 +7°C° 0 mm 4 m/s 759 mmHg 75%
    10:00 +10°C° 0 mm 5 m/s 758 mmHg 71%
    11:00 +12°C° 0 mm 7 m/s 758 mmHg 66%
    12:00 +14°C° 0 mm 7 m/s 758 mmHg 64%
    13:00 +15°C° 0 mm 7 m/s 757 mmHg 62%
    14:00 +16°C° 0 mm 7 m/s 757 mmHg 60%
    15:00 +16°C° 0 mm 6 m/s 757 mmHg 62%
    16:00 +16°C° 0 mm 6 m/s 756 mmHg 64%
    17:00 +15°C° 0 mm 5 m/s 756 mmHg 66%
    18:00 +14°C° 0 mm 5 m/s 757 mmHg 70%
    19:00 +13°C° 0 mm 5 m/s 757 mmHg 74%
    20:00 +12°C° 0 mm 4 m/s 758 mmHg 78%
    21:00 +12°C° 0 mm 4 m/s 758 mmHg 80%
    22:00 +11°C° 0 mm 3 m/s 758 mmHg 82%
    23:00 +11°C° 0 mm 3 m/s 758 mmHg 84%

    3 Mars, Mardi

    Heure Température Précipitation Vent Pression Humidité
    00:00 +11°C° 0 mm 3 m/s 758 mmHg 85%
    01:00 +11°C° 0 mm 3 m/s 758 mmHg 87%
    02:00 +11°C° 0 mm 3 m/s 758 mmHg 88%
    03:00 +11°C° 0 mm 3 m/s 758 mmHg 88%
    04:00 +11°C° 0 mm 3 m/s 758 mmHg 88%
    05:00 +11°C° 0 mm 3 m/s 757 mmHg 88%
    06:00 +11°C° 0 mm 4 m/s 757 mmHg 86%
    07:00 +12°C° 0 mm 4 m/s 758 mmHg 84%
    08:00 +13°C° 0 mm 5 m/s 758 mmHg 82%
    09:00 +14°C° 0 mm 6 m/s 757 mmHg 77%
    10:00 +15°C° 0 mm 6 m/s 757 mmHg 71%
    11:00 +16°C° 0 mm 7 m/s 757 mmHg 65%
    12:00 +17°C° 0 mm 7 m/s 757 mmHg 61%
    13:00 +17°C° 0 mm 7 m/s 756 mmHg 57%
    14:00 +18°C° 0 mm 7 m/s 756 mmHg 52%
    15:00 +18°C° 0 mm 7 m/s 756 mmHg 54%
    16:00 +17°C° 0 mm 7 m/s 755 mmHg 56%
    17:00 +16°C° 0 mm 7 m/s 755 mmHg 58%
    18:00 +16°C° 0 mm 6 m/s 755 mmHg 62%
    19:00 +15°C° 0 mm 6 m/s 755 mmHg 65%
    20:00 +14°C° 0 mm 6 m/s 755 mmHg 68%
    21:00 +14°C° 0 mm 5 m/s 755 mmHg 69%
    22:00 +13°C° 0 mm 5 m/s 755 mmHg 69%
    23:00 +13°C° 0 mm 4 m/s 755 mmHg 69%

    4 Mars, Mercredi

    Heure Température Précipitation Vent Pression Humidité
    00:00 +13°C° 0 mm 4 m/s 754 mmHg 69%
    01:00 +12°C° 0 mm 4 m/s 754 mmHg 68%
    02:00 +12°C° 0 mm 4 m/s 754 mmHg 68%
    03:00 +12°C° 0 mm 4 m/s 753 mmHg 66%
    04:00 +12°C° 0 mm 4 m/s 753 mmHg 65%
    05:00 +12°C° 0 mm 5 m/s 752 mmHg 63%
    06:00 +12°C° 0 mm 5 m/s 753 mmHg 63%
    07:00 +13°C° 0 mm 5 m/s 753 mmHg 63%
    08:00 +13°C° 0 mm 5 m/s 753 mmHg 63%
    09:00 +14°C° 0 mm 7 m/s 753 mmHg 63%
    10:00 +15°C° 0 mm 8 m/s 753 mmHg 63%
    11:00 +15°C° 0 mm 9 m/s 753 mmHg 63%
    12:00 +16°C° 0 mm 9 m/s 752 mmHg 58%
    13:00 +17°C° 0 mm 9 m/s 752 mmHg 54%
    14:00 +18°C° 0 mm 9 m/s 752 mmHg 49%
    15:00 +17°C° 0 mm 8 m/s 752 mmHg 51%
    16:00 +16°C° 0 mm 7 m/s 752 mmHg 54%
    17:00 +15°C° 0 mm 6 m/s 752 mmHg 56%
    18:00 +14°C° 0 mm 6 m/s 752 mmHg 60%
    19:00 +13°C° 0 mm 5 m/s 752 mmHg 64%
    20:00 +10°C° 0 mm 5 m/s 753 mmHg 68%
    21:00 +10°C° 0 mm 5 m/s 753 mmHg 72%
    22:00 +9°C° 0 mm 5 m/s 753 mmHg 75%
    23:00 +9°C° 0 mm 5 m/s 754 mmHg 78%

    5 Mars, Jeudi

    Heure Température Précipitation Vent Pression Humidité
    00:00 +8°C° 0 mm 4 m/s 754 mmHg 80%
    01:00 +8°C° 0 mm 4 m/s 754 mmHg 82%
    02:00 +8°C° 0 mm 3 m/s 754 mmHg 84%
    03:00 +8°C° 0 mm 2 m/s 754 mmHg 84%
    04:00 +8°C° 0 mm 1 m/s 754 mmHg 85%
    05:00 +8°C° 0 mm 1 m/s 754 mmHg 86%
    06:00 +8°C° 0 mm 1 m/s 755 mmHg 84%
    07:00 +9°C° 0 mm 1 m/s 755 mmHg 82%
    08:00 +9°C° 0 mm 1 m/s 755 mmHg 81%
    09:00 +9°C° 0.1 mm 2 m/s 755 mmHg 76%
    10:00 +10°C° 0.1 mm 3 m/s 755 mmHg 72%
    11:00 +11°C° 0.1 mm 3 m/s 755 mmHg 67%
    12:00 +11°C° 0.1 mm 3 m/s 755 mmHg 67%
    13:00 +10°C° 0.1 mm 3 m/s 755 mmHg 66%
    14:00 +10°C° 0.1 mm 3 m/s 755 mmHg 66%
    15:00 +10°C° 0.1 mm 3 m/s 755 mmHg 66%
    16:00 +10°C° 0.1 mm 2 m/s 755 mmHg 67%
    17:00 +10°C° 0.1 mm 2 m/s 755 mmHg 67%
    18:00 +9°C° 0 mm 2 m/s 755 mmHg 67%
    19:00 +10°C° 0 mm 1 m/s 756 mmHg 68%
    20:00 +9°C° 0 mm 1 m/s 756 mmHg 68%
    21:00 +8°C° 0 mm 2 m/s 756 mmHg 69%
    22:00 +7°C° 0 mm 2 m/s 757 mmHg 69%
    23:00 +7°C° 0 mm 2 m/s 757 mmHg 69%
    Voir plus